Погода в Мещерском

Россия / Пензенская область     52˚40′19″N   44˚09′57″E
темп.,
°C
ветер,
м/с
пор.,
м/с
влажн.,
%
обл.,
%
осадки,
мм/ч
давл.,
гПа
погр.,
м
17 января, вс
вс1700:00−14˚зюз61293100 0.2 1007438
03:00−15˚зюз51194100 0.3 1009374
06:00−17˚зюз4996100 0.1 1010286
09:00−20˚зюз369999 0.1 101399
12:00−18˚зюз369583 0.0 1014262
15:00−20˚з239646 0.0 101423
18:00−23˚зсз22970 0.0 101720
21:00−25˚ссз119834 0.0 101820
18 января, пн
пн1800:00−25˚юв009796 0.0 101920
03:00−25˚св229594 0.0 101820
06:00−25˚св1296100 0.0 101820
09:00−24˚ссв3395100 0.0 102045
12:00−21˚св2293100 0.0 1019149
15:00−19˚ссв2493100 0.0 1018218
18:00−19˚ссв3494100 0.0 1017201
21:00−19˚ссв2498100 1.0 1017167
19 января, вт
вт1900:00−19˚с2298100 0.3 101734
03:00−20˚ссз2298100 0.4 101720
06:00−20˚ссз1298100 0.1 101620
09:00−22˚ссз1297100 0.1 101720
12:00−20˚з229692 0.0 1016144
15:00−21˚з229789 0.0 101523
18:00−23˚зсз239876 0.0 101620
21:00−24˚з239976 0.1 101724
20 января, ср
ср2000:00−23˚з239896 0.1 101771
03:00−22˚з249897 0.1 101890
06:00−21˚з2499100 0.3 1019165
09:00−21˚зсз349795 0.4 102094
12:00−19˚сз359567 0.0 1021208
15:00−20˚зсз349652 0.0 102191
18:00−23˚сз34960 0.0 102449
21:00−24˚сз34960 0.0 102540
21 января, чт
чт2100:00−24˚сз33980 0.0 102628
03:00−24˚з339825 0.0 102728
06:00−23˚з349967 0.0 102741
09:00−23˚зюз339975 0.0 102855
12:00−18˚зюз469589 0.0 1028229
15:00−17˚зюз479593 0.0 1027240
18:00−17˚юз4995100 0.0 1027228
21:00−16˚юз51094100 0.0 1025254